This is the latest recevied weather packets stored in our database for station/object DB0RES-5. If no packets are shown the sender has not sent any weather packets the latest 10 day(s).
| Time | Temp. | Humidity | Pressure | Rain* | Wind** | Luminosity | Snow |
|---|---|---|---|---|---|---|---|
| 1777385724 | 18.33° C | 35% | 1023.4 hPa | 0 mm | - | - | - |
| 1777385121 | 18.33° C | 33% | 1023.4 hPa | 0 mm | - | - | - |
| 1777384519 | 18.33° C | 32% | 1023.5 hPa | 0 mm | - | - | - |
| 1777383916 | 18.33° C | 31% | 1023.5 hPa | 0 mm | - | - | - |
| 1777383374 | 18.33° C | 30% | 1023.7 hPa | 0 mm | - | - | - |
| 1777382771 | 18.33° C | 30% | 1023.6 hPa | 0 mm | - | - | - |
| 1777382169 | 18.33° C | 30% | 1023.6 hPa | 0 mm | - | - | - |
| 1777381566 | 18.33° C | 31% | 1023.7 hPa | 0 mm | - | - | - |
| 1777380963 | 17.78° C | 37% | 1023.5 hPa | 0 mm | - | - | - |
| 1777380361 | 17.78° C | 40% | 1023.6 hPa | 0 mm | - | - | - |
| 1777379758 | 17.78° C | 41% | 1023.8 hPa | 0 mm | - | - | - |
| 1777379155 | 17.78° C | 41% | 1023.8 hPa | 0 mm | - | - | - |
| 1777378553 | 17.78° C | 42% | 1023.9 hPa | 0 mm | - | - | - |
| 1777377950 | 17.22° C | 43% | 1023.9 hPa | 0 mm | - | - | - |
| 1777377348 | 17.22° C | 43% | 1024.1 hPa | 0 mm | - | - | - |
| 1777376745 | 17.22° C | 44% | 1023.9 hPa | 0 mm | - | - | - |
| 1777376142 | 17.22° C | 43% | 1023.9 hPa | 0 mm | - | - | - |
| 1777375540 | 17.22° C | 42% | 1024 hPa | 0 mm | - | - | - |
| 1777374937 | 17.22° C | 44% | 1023.9 hPa | 0 mm | - | - | - |
| 1777374335 | 16.67° C | 45% | 1024 hPa | 0 mm | - | - | - |
| 1777373732 | 16.67° C | 46% | 1024 hPa | 0 mm | - | - | - |
| 1777373130 | 16.67° C | 47% | 1024.1 hPa | 0 mm | - | - | - |
| 1777372527 | 16.11° C | 47% | 1024.2 hPa | 0 mm | - | - | - |
| 1777371925 | 16.11° C | 47% | 1024.1 hPa | 0 mm | - | - | - |
| 1777371322 | 16.11° C | 48% | 1024.1 hPa | 0 mm | - | - | - |
* Rain latest hour (hover to see other rain measurements)
** Current wind speed in m/s (hover to see current wind gust speed)